Regional Weather Roundup
Issued by NWS Sterling, VA

Home | Current Version | Previous Version | Graphics & Text | Print | Product List | Glossary On
Versions: 1 2 3 4 5 6 7 8 9 10 11 12 13 14 15 16 17 18 19 20 21 22 23 24 25 26 27 28
000
ASUS41 KLWX 180110
RWRLWX

REGIONAL WEATHER ROUNDUP
NATIONAL WEATHER SERVICE BALTIMORE MD/WASHINGTON DC
800 PM EST FRI NOV 17 2017

Note: "FAIR" indicates few or no clouds below 12,000 feet
with no significant weather and/or obstructions to visibility.
 TC=TEMPERATURE CELSIUS

 * =Non NWS site. Station does not report precipitation (e.g. rain,
    snow, etc.), thunder, or fog.

DCZ001-MDZ009-015-VAZ040>042-051-053>054-180200-
WASHINGTON METRO

CITY           SKY/WX    TMP DP  RH WIND       PRES   REMARKS
WASHINGTON NAT PTCLDY    43  35  73 CALM      30.14F
DULLES         PTCLDY    35  30  82 S3        30.12F
ANDREWS AFB    CLEAR     36  28  74 CALM      30.12F
FT BELVOIR     PTCLDY    36  29  77 CALM      30.14S
QUANTICO       CLEAR     39  34  82 NW7       30.15F
COLLEGE PARK*  CLEAR     35  29  77 CALM      30.13F
LEESBURG*      PTCLDY    37  32  81 CALM      30.12F
MANASSAS*      CLOUDY    33  29  85 CALM      30.13F
GAITHERSBURG*  CLOUDY    37  27  67 SE3       30.12F

$$

MDZ006>007-011-014-180200-
BALTIMORE METRO

CITY           SKY/WX    TMP DP  RH WIND       PRES   REMARKS
BWI AIRPORT    PTCLDY    36  29  75 CALM      30.13F
MD SCIENCE CTR   N/A     47  28  47 MISG      30.13F
MARTIN STATE   CLEAR     39  34  81 CALM      30.15F
ANNAPOLIS      CLEAR     42  37  82 CALM      30.14F
FORT MEADE*    CLEAR     32  28  86 CALM      30.16S

$$

MDZ012-015-019>023-180200-
MARYLAND EASTERN SHORE

CITY           SKY/WX    TMP DP  RH WIND       PRES   REMARKS
OCEAN CITY     CLEAR     35  31  85 CALM      30.15S
SALISBURY      CLEAR     35  32  88 CALM      30.14F
CAMBRIDGE*     CLEAR     36  32  87 CALM      30.14F FOG
EASTON*        CLEAR     37  30  75 CALM      30.17F

$$

MDZ017>025-180200-
SOUTHERN MARYLAND

CITY           SKY/WX    TMP DP  RH WIND       PRES   REMARKS
PATUXENT RIVER PTCLDY    36  32  85 W3        30.14F
ST INIGOES     CLEAR     36  32  85 E3        30.14F
LEONARDTOWN*   CLEAR     36  32  87 CALM      30.16F

$$

MDZ003>005-180200-
NORTH CENTRAL MARYLAND

CITY           SKY/WX    TMP DP  RH WIND       PRES   REMARKS
FREDERICK*     CLEAR     34  28  80 CALM      30.15F
HAGERSTOWN APT CLOUDY    41  26  55 E8        30.09F
WESTMINSTER*   CLEAR     37  28  70 CALM      30.11S

$$

MDZ501>502-180200-
WESTERN MARYLAND

CITY           SKY/WX    TMP DP  RH WIND       PRES   REMARKS
OAKLAND*       CLOUDY    34  27  75 SE9       29.99F WCI  26
CUMBERLAND*    CLOUDY    39  30  70 CALM      30.12F

$$

VAZ025>031-180200-
SHENANDOAH VALLEY

CITY           SKY/WX    TMP DP  RH WIND       PRES   REMARKS
WINCHESTER*    CLOUDY    34  28  80 CALM      30.09F
FRONT ROYAL*   CLOUDY    34  28  80 CALM      30.09F
LURAY*         CLOUDY    34  30  86 CALM      30.09F
NEW MARKET*    CLOUDY    32  29  88 CALM      30.08F
STAUNTON*      CLOUDY    30  26  85 CALM      30.11S
WAYNESBORO*    CLEAR     39  24  53 SW5       30.09F

$$

WVZ021-048>050-054>055-180200-
EASTERN WEST VIRGINIA PANHANDLE

CITY           SKY/WX    TMP DP  RH WIND       PRES   REMARKS
MARTINSBURG    CLOUDY    37  27  67 CALM      30.08F
PETERSBURG*    CLOUDY    33  30  90 CALM      30.08F

$$

VAZ036>039-050-180200-
CENTRAL FOOTHILLS

CITY           SKY/WX    TMP DP  RH WIND       PRES   REMARKS
CHARLOTTESVILL CLEAR     44  27  51 S3        30.11F
CULPEPER*      CLEAR     33  27  80 CALM      30.13F
ORANGE*        CLEAR     34  28  80 CALM      30.13S
GORDONSVILLE*  CLEAR     35  31  88 CALM      30.12F
WARRENTON*     NOT AVBL

$$

VAZ055>057-180200-
NORTH AND CENTRAL PIEDMONT

CITY           SKY/WX    TMP DP  RH WIND       PRES   REMARKS
FREDERICKSBRG* CLEAR     37  32  84 CALM      30.14S
STAFFORD*      CLEAR     32  31  98 CALM      30.18S

$$

NCZ024-NYZ072-PAZ021-071-VAZ022-071-180200-
OTHER REGIONAL OBSERVATIONS

CITY           SKY/WX    TMP DP  RH WIND       PRES   REMARKS
NEW YORK CITY  CLEAR     42  15  33 VRB7      30.10S
PHILADELPHIA   PTCLDY    44  24  45 W9        30.12F
PITTSBURGH     MOCLDY    36  28  73 SE3       30.01F
ROANOKE        CLEAR     44  27  51 CALM      30.14R
RICHMOND       PTCLDY    38  31  76 CALM      30.14F
RALEIGH        PTCLDY    41  34  76 CALM      30.15S

$$

ANZ530>537-180200-
MARINE OBSERVATIONS

STATION/POSITION TIME  TEMP    WIND        PRES
                       AIR SEA DIR/SP/G
                 (UTC) (F)     (DEG/KT/KT) (MB)
THOMAS PT LIGHT  0100   49 53  290/  2/  3   N/A

$$





USA.gov is the U.S. government's official web portal to all federal, state and local government web resources and services.